Location: Hysolar-Haus
(48.7436°N, 9.0965°E)
Time: 18:18:51
(UTC+00:00)

ISS - Visible Passes

Search period start: 27 February 2021 00:00
Search period end: 09 March 2021 00:00
Orbit: 417 x 422 km, 51.6° (Epoch: 27 February)

Date Brightness Start Highest point End Pass type
(mag) Time Alt. Az. Time Alt. Az. Time Alt. Az.
27 Feb -2.7 03:52:06 45° E 03:52:06 45° E 03:54:39 10° ENE visible
27 Feb -3.3 05:25:04 11° W 05:28:13 52° N 05:31:32 10° ENE visible
28 Feb -0.6 03:06:31 14° E 03:06:31 14° E 03:07:08 10° ENE visible
28 Feb -3.5 04:39:28 34° WNW 04:40:42 59° NNW 04:44:02 10° ENE visible
01 Mar -3.1 03:53:50 53° NE 03:53:50 53° NE 03:56:34 10° ENE visible
01 Mar -3.2 05:26:58 10° WNW 05:30:15 50° N 05:33:33 10° E visible
02 Mar -0.8 03:08:10 17° ENE 03:08:10 17° ENE 03:09:05 10° ENE visible
02 Mar -3.2 04:41:07 26° WNW 04:42:43 49° N 04:46:00 10° ENE visible
03 Mar -3.1 03:55:27 50° NNE 03:55:27 50° NNE 03:58:28 10° ENE visible
04 Mar -1.0 03:09:46 20° ENE 03:09:46 20° ENE 03:10:58 10° ENE visible
04 Mar -3.3 04:42:43 21° WNW 04:44:43 54° N 04:48:02 10° E visible
05 Mar -3.2 03:57:02 49° N 03:57:10 50° N 04:00:27 10° E visible
06 Mar -1.3 03:11:24 23° ENE 03:11:24 23° ENE 03:12:53 10° ENE visible
06 Mar -3.7 04:44:21 19° WNW 04:46:39 78° NNE 04:50:01 10° ESE visible
07 Mar -3.5 03:58:44 57° NNW 03:59:08 63° NNE 04:02:28 10° E visible
08 Mar -1.6 03:13:10 27° ENE 03:13:10 27° ENE 03:14:53 10° E visible
08 Mar -3.6 04:46:08 18° WNW 04:48:26 56° SSW 04:51:44 10° SE visible
